Location: Unspecified
(0.0000°N, 0.0000°E)
Time: 17:53:34
(UTC+00:00)

Vanguard 2 - Pass Details

Date: 16 April 2026
Orbit: 553 x 2895 km, 32.9° (Epoch: 17 May)

Event Time Altitude Azimuth Distance (km) Brightness Sun altitude
Rises 22:29:41 0° 266° (W) 5,597 12.2 -65.3°
Reaches altitude 10° 22:33:57 10° 254° (WSW) 4,919 11.8 -66.3°
Enters shadow 22:37:14 17° 242° (WSW) 4,535 11.4 -67.0°
